Terug naar catalogus

SL-8 R/B

ActiefPO
NORAD 13917·ROCKET BODY·🇷🇺 Russia

Gelanceerd Mar 24, 1983 vanaf Plesetsk Cosmodrome

Loading…

Volgende Passages (komende 24 uur)

TLE

VersSource: Space-Track

Epoch: Sep 14, 2026, 00:29 UTC

1 13917U 83021B   26257.02075094  .00000007  00000-0 -86823-5 0  9994
2 13917  82.9385 258.1141 0028950 159.7109 227.2709 13.77129692183903

Volg SL-8 R/B in realtime met AllMySat

Download on the App Store